This is the latest recevied weather packets stored in our database for station/object NI4CE-11. If no packets are shown the sender has not sent any weather packets the latest 10 day(s).
| Time | Temp. | Humidity | Pressure | Rain* | Wind** | Luminosity | Snow |
|---|---|---|---|---|---|---|---|
| 1777734005 | 31.11° C | 100% | 1011.6 hPa | 0 mm | - | - | - |
| 1777733705 | 31.11° C | 100% | 1011.6 hPa | 0 mm | - | - | - |
| 1777733405 | 29.44° C | 100% | 1011.7 hPa | 0 mm | - | - | - |
| 1777733105 | 30.56° C | 100% | 1011.7 hPa | 0 mm | - | - | - |
| 1777733041 | 30° C | 100% | 1011.8 hPa | 0 mm | - | - | - |
| 1777732904 | 30° C | 100% | 1011.7 hPa | 0 mm | - | - | - |
| 1777732805 | 30.56° C | 100% | 1011.7 hPa | 0 mm | - | - | - |
| 1777732505 | 30° C | 100% | 1011.7 hPa | 0 mm | - | - | - |
| 1777732398 | 30° C | 100% | 1011.8 hPa | 0 mm | - | - | - |
| 1777732205 | 30° C | 100% | 1011.8 hPa | 0 mm | - | - | - |
| 1777731905 | 30.56° C | 100% | 1011.9 hPa | 0 mm | - | - | - |
| 1777731605 | 28.89° C | 100% | 1011.8 hPa | 0 mm | - | - | - |
| 1777731305 | 28.89° C | 100% | 1011.8 hPa | 0 mm | - | - | - |
| 1777731005 | 28.89° C | 100% | 1011.7 hPa | 0 mm | - | - | - |
| 1777730705 | 28.89° C | 100% | 1011.8 hPa | 0 mm | - | - | - |
| 1777730423 | 28.89° C | 100% | 1011.7 hPa | 0 mm | - | - | - |
| 1777730405 | 30° C | 100% | 1011.8 hPa | 0 mm | - | - | - |
| 1777730105 | 28.89° C | 100% | 1011.7 hPa | 0 mm | - | - | - |
| 1777729845 | 28.33° C | 100% | 1011.5 hPa | 0 mm | - | - | - |
| 1777729805 | 28.33° C | 100% | 1011.7 hPa | 0 mm | - | - | - |
| 1777729505 | 28.33° C | 100% | 1011.7 hPa | 0 mm | - | - | - |
| 1777729205 | 28.33° C | 100% | 1011.5 hPa | 0 mm | - | - | - |
| 1777728905 | 26.67° C | 100% | 1011.4 hPa | 0 mm | - | - | - |
| 1777728605 | 27.22° C | 100% | 1011.4 hPa | 0 mm | - | - | - |
| 1777728305 | 27.22° C | 100% | 1011.4 hPa | 0 mm | - | - | - |
* Rain latest hour (hover to see other rain measurements)
** Current wind speed in m/s (hover to see current wind gust speed)